Whiteville, NC

6:58 AM EST on November 22, 2017 (GMT -0500)
Columbus County Municipal

Weather History for KCPC - November, 2012

Change the Weather History Date:

Wednesday, November 7, 2012

  Actual Average (KCRE) Record (KCRE)
Temperature  
Mean Temperature 44 °F -  
Max Temperature 53 °F 65 °F 81 °F (2015)
Min Temperature 35 °F 46 °F 29 °F (1952)
Degree Days  
Heating Degree Days 21    
Moisture  
Dew Point 35 °F    
Average Humidity 78    
Maximum Humidity 100    
Minimum Humidity 51    
Precipitation  
Precipitation 0.00 in - - ()
Sea Level Pressure  
Sea Level Pressure 29.88 in    
Wind  
Wind Speed 1 mph (NNW)    
Max Wind Speed 6 mph    
Max Gust Speed -    
Visibility 10 miles    
Events      
Averages and records for this station are not official NWS values.
T = Trace of Precipitation, MM = Missing Value Source: NWS Daily Summary

Daily Weather History Graph

Daily Weather History Graph

Search for Another Location

Airport or City:

Trip Planner

Search our weather history database for the weather conditions in past years. The results will help you decide how hot, cold, wet, or windy it might be!

Date:

Astronomy

Nov. 07, 2012 Rise Set
Actual Time 6:40 AM EST 5:15 PM EST
Civil Twilight 6:14 AM EST 5:42 PM EST
Nautical Twilight 5:44 AM EST 6:12 PM EST
Astronomical Twilight 5:15 AM EST 6:41 PM EST
Moon No Moon Rise 1:07 PM EST (11/7)
Length of Visible Light 11h 27m
Length of Day
10h 35m
Last Quarter, 43% of the Moon is Illuminated
Nov 7
Last Quarter
Nov 13
New
Nov 20
First Quarter
Nov 28
Full
Dec 6
Last Quarter

Hourly Weather History & Observations

Time (EST) Temp. Windchill Dew Point Humidity Pressure Visibility Wind Dir Wind Speed Gust Speed Precip Events Conditions
12:15 AM 41.0 °F - 33.8 °F 76% 29.89 in 10.0 mi Calm Calm - N/A   Clear
12:35 AM 41.0 °F - 33.8 °F 76% 29.90 in 10.0 mi Calm Calm - N/A   Clear
12:55 AM 41.0 °F - 33.8 °F 76% 29.90 in 10.0 mi Calm Calm - N/A   Clear
1:15 AM 37.4 °F - 33.8 °F 87% 29.89 in 10.0 mi Calm Calm - N/A   Clear
1:35 AM 37.4 °F - 33.8 °F 87% 29.87 in 10.0 mi Calm Calm - N/A   Clear
1:55 AM 37.4 °F - 33.8 °F 87% 29.87 in 10.0 mi Calm Calm - N/A   Clear
2:15 AM 37.4 °F - 32.0 °F 81% 29.87 in 10.0 mi Calm Calm - N/A   Clear
2:35 AM 37.4 °F - 32.0 °F 81% 29.86 in 10.0 mi Calm Calm - N/A   Clear
2:55 AM 37.4 °F - 32.0 °F 81% 29.87 in 10.0 mi Calm Calm - N/A   Clear
3:15 AM 37.4 °F - 32.0 °F 81% 29.87 in 10.0 mi Calm Calm - N/A   Clear
3:55 AM 37.4 °F - 32.0 °F 81% 29.86 in 10.0 mi Calm Calm - N/A   Clear
4:15 AM 37.4 °F - 32.0 °F 81% 29.86 in 10.0 mi Calm Calm - N/A   Clear
4:35 AM 37.4 °F - 32.0 °F 81% 29.87 in 10.0 mi Calm Calm - N/A   Clear
4:55 AM 35.6 °F - 32.0 °F 87% 29.86 in 10.0 mi Calm Calm - N/A   Clear
5:15 AM 35.6 °F - 32.0 °F 87% 29.86 in 10.0 mi Calm Calm - N/A   Clear
5:35 AM 37.4 °F - 33.8 °F 87% 29.86 in 10.0 mi Calm Calm - N/A   Mostly Cloudy
5:55 AM 37.4 °F - 33.8 °F 87% 29.86 in 10.0 mi Calm Calm - N/A   Overcast
6:15 AM 37.4 °F - 33.8 °F 87% 29.86 in 10.0 mi Calm Calm - N/A   Overcast
6:35 AM 37.4 °F - 33.8 °F 87% 29.87 in 10.0 mi Calm Calm - N/A   Mostly Cloudy
6:55 AM 37.4 °F 34.9 °F 33.8 °F 87% 29.87 in 10.0 mi West 3.5 mph - N/A   Scattered Clouds
7:15 AM 37.4 °F - 33.8 °F 87% 29.88 in 10.0 mi Calm Calm - N/A   Clear
7:35 AM 37.4 °F - 33.8 °F 87% 29.88 in 10.0 mi Calm Calm - N/A   Clear
7:55 AM 39.2 °F 37.0 °F 33.8 °F 81% 29.89 in 10.0 mi NNW 3.5 mph - N/A   Clear
8:15 AM 41.0 °F 39.0 °F 33.8 °F 76% 29.89 in 10.0 mi NNW 3.5 mph - N/A   Clear
8:35 AM 42.8 °F 39.3 °F 33.8 °F 70% 29.89 in 10.0 mi North 5.8 mph - N/A   Clear
8:55 AM 42.8 °F 39.3 °F 33.8 °F 70% 29.90 in 10.0 mi North 5.8 mph - N/A   Mostly Cloudy
9:15 AM 42.8 °F - 35.6 °F 76% 29.89 in 10.0 mi Calm Calm - N/A   Mostly Cloudy
9:35 AM 44.6 °F 43.1 °F 35.6 °F 71% 29.89 in 10.0 mi NNW 3.5 mph - N/A   Scattered Clouds
9:55 AM 44.6 °F 42.2 °F 35.6 °F 71% 29.88 in 10.0 mi NNE 4.6 mph - N/A   Scattered Clouds
10:15 AM 46.4 °F 43.5 °F 35.6 °F 66% 29.88 in 10.0 mi North 5.8 mph - N/A   Scattered Clouds
10:35 AM 48.2 °F - 37.4 °F 66% 29.89 in 10.0 mi NNW 3.5 mph - N/A   Scattered Clouds
10:55 AM 48.2 °F - 37.4 °F 66% 29.88 in 10.0 mi North 3.5 mph - N/A   Scattered Clouds
11:15 AM 50.0 °F - 37.4 °F 62% 29.88 in 10.0 mi Calm Calm - N/A   Scattered Clouds
11:35 AM 50.0 °F - 37.4 °F 62% 29.87 in 10.0 mi WSW 3.5 mph - N/A   Scattered Clouds
11:55 AM 51.8 °F - 37.4 °F 58% 29.86 in 10.0 mi WNW 4.6 mph - N/A   Scattered Clouds
12:15 PM 51.8 °F - 37.4 °F 58% 29.85 in 10.0 mi NNE 3.5 mph - N/A   Scattered Clouds
12:35 PM 51.8 °F - 37.4 °F 58% 29.84 in 10.0 mi NNW 5.8 mph - N/A   Scattered Clouds
12:55 PM 51.8 °F - 37.4 °F 58% 29.84 in 10.0 mi WNW 4.6 mph - N/A   Scattered Clouds
1:15 PM 51.8 °F - 37.4 °F 58% 29.83 in 10.0 mi NNE 3.5 mph - N/A   Scattered Clouds
1:35 PM 51.8 °F - 37.4 °F 58% 29.83 in 10.0 mi WNW 5.8 mph - N/A   Scattered Clouds
1:55 PM 51.8 °F - 37.4 °F 58% 29.83 in 10.0 mi NW 4.6 mph - N/A   Mostly Cloudy
2:15 PM 51.8 °F - 37.4 °F 58% 29.83 in 10.0 mi Calm Calm - N/A   Mostly Cloudy
2:35 PM 53.6 °F - 35.6 °F 51% 29.83 in 10.0 mi NNW 4.6 mph - N/A   Scattered Clouds
2:55 PM 53.6 °F - 35.6 °F 51% 29.82 in 10.0 mi Calm Calm - N/A   Scattered Clouds
3:15 PM 53.6 °F - 37.4 °F 54% 29.83 in 10.0 mi NW 4.6 mph - N/A   Mostly Cloudy
3:35 PM 51.8 °F - 35.6 °F 54% 29.83 in 10.0 mi North 3.5 mph - N/A   Scattered Clouds
3:55 PM 51.8 °F - 35.6 °F 54% 29.84 in 10.0 mi North 3.5 mph - N/A   Clear
4:15 PM 51.8 °F - 35.6 °F 54% 29.85 in 10.0 mi North 3.5 mph - N/A   Clear
4:35 PM 50.0 °F - 35.6 °F 58% 29.85 in 10.0 mi North 3.5 mph - N/A   Clear
4:55 PM 50.0 °F - 37.4 °F 62% 29.85 in 10.0 mi Calm Calm - N/A   Clear
5:15 PM 46.4 °F - 37.4 °F 71% 29.85 in 10.0 mi Calm Calm - N/A   Clear
5:35 PM 44.6 °F - 39.2 °F 81% 29.86 in 10.0 mi Calm Calm - N/A   Clear
5:55 PM 44.6 °F - 39.2 °F 81% 29.87 in 10.0 mi Calm Calm - N/A   Clear
6:15 PM 42.8 °F - 39.2 °F 87% 29.88 in 10.0 mi Calm Calm - N/A   Clear
6:35 PM 41.0 °F - 39.2 °F 93% 29.89 in 10.0 mi Calm Calm - N/A   Clear
6:55 PM 41.0 °F - 39.2 °F 93% 29.89 in 10.0 mi Calm Calm - N/A   Clear
7:15 PM 41.0 °F - 39.2 °F 93% 29.89 in 10.0 mi Calm Calm - N/A   Clear
7:35 PM 39.2 °F - 37.4 °F 93% 29.89 in 10.0 mi Calm Calm - N/A   Clear
7:55 PM 37.4 °F - 35.6 °F 93% 29.90 in 7.0 mi Calm Calm - N/A   Clear
8:15 PM 39.2 °F - 37.4 °F 93% 29.90 in 10.0 mi Calm Calm - N/A   Clear
8:35 PM 39.2 °F - 37.4 °F 93% 29.91 in 10.0 mi Calm Calm - N/A   Clear
8:55 PM 37.4 °F - 37.4 °F 100% 29.91 in 10.0 mi Calm Calm - N/A   Clear
9:15 PM 37.4 °F - 35.6 °F 93% 29.92 in 10.0 mi Calm Calm - N/A   Clear
9:35 PM 37.4 °F - 35.6 °F 93% 29.92 in 7.0 mi Calm Calm - N/A   Clear
9:55 PM 35.6 °F - 35.6 °F 100% 29.93 in 7.0 mi Calm Calm - N/A   Clear
10:15 PM 35.6 °F - 33.8 °F 93% 29.93 in 7.0 mi Calm Calm - N/A   Clear
10:35 PM 35.6 °F - 35.6 °F 100% 29.93 in 7.0 mi Calm Calm - N/A   Clear
10:55 PM 35.6 °F - 33.8 °F 93% 29.94 in 10.0 mi Calm Calm - N/A   Scattered Clouds
11:15 PM 35.6 °F - 35.6 °F 100% 29.94 in 10.0 mi Calm Calm - N/A   Scattered Clouds
11:35 PM 35.6 °F - 35.6 °F 100% 29.94 in 10.0 mi Calm Calm - N/A   Clear
11:55 PM 35.6 °F - 35.6 °F 100% 29.95 in 7.0 mi Calm Calm - N/A   Clear